Content
SEND FEEDBACK

Daily
Averages
Monthly
Summary
Canada

QUEBEC CITY, QUEBEC


Home > North America > Canada > Quebec
Elevation: 239 feet     Latitude: 46 48N     Longitude: 071 23W

WEATHER
 
SELECT A DAY
Number of Records: 196,977;   Date Range: 6/30/96 - 11/22/14
 
SHARE

PRINT THIS DATA

[ ← Previous Day ]
WEATHER ALMANAC - OCTOBER 24, 2013
[ Next Day → ]
[ °C ]   °F
We're sorry. There is no daily almanac available for Quebec City, Quebec on October 24, 2013.
WEATHER BY HOUR - OCTOBER 24, 2013
[ °C ]   °F
Local TimeTemperatureDewpointHumidityBarometerVisibilityWind DirectionWind SpeedGust SpeedPrecipitationEventsConditions
12:26 AM35.6 °F28.4 °F75 %29.60 in15.0 miWSW (250°)8.1 mphOvercast
1:00 AM35.6 °F26.6 °F70 %29.60 in15.0 miWest (260°)6.9 mphOvercast
2:00 AM34.0 °F26.0 °F64 %29.59 inWSW (250°)8.1 mph
2:00 AM33.8 °F26.6 °F75 %29.60 in15.0 miWest (260°)8.1 mphScattered Clouds
3:00 AM33.8 °F26.6 °F75 %29.58 in15.0 miWSW (250°)6.9 mphMostly Cloudy
4:00 AM32.0 °F24.8 °F75 %29.57 in15.0 miWSW (250°)10.4 mphScattered Clouds
5:00 AM34.0 °F27.0 °F67 %29.57 inWSW (240°)6.9 mph
5:00 AM33.8 °F26.6 °F75 %29.57 in15.0 miWSW (240°)10.4 mphMostly Cloudy
6:00 AM32.0 °F26.6 °F80 %29.58 in15.0 miSW (220°)11.5 mphMostly Cloudy
7:00 AM32.0 °F26.6 °F80 %29.59 in25.0 miWSW (250°)6.9 mphMostly Cloudy
8:00 AM33.0 °F28.0 °F74 %29.60 inWSW (240°)6.9 mph
8:00 AM33.8 °F24.8 °F70 %29.60 in30.0 miWSW (250°)12.7 mphMostly Cloudy
9:00 AM35.6 °F28.4 °F75 %29.60 in30.0 miSW (230°)18.4 mphMostly Cloudy
10:00 AM37.4 °F24.8 °F60 %29.60 in30.0 miWSW (240°)15.0 mph24.2 mphMostly Cloudy
11:00 AM38.0 °F27.0 °F54 %29.58 inWSW (240°)15.0 mph
11:00 AM39.2 °F26.6 °F61 %29.59 in30.0 miSW (230°)19.6 mph29.9 mphMostly Cloudy
12:00 PM39.2 °F26.6 °F61 %29.58 in30.0 miWSW (240°)19.6 mph28.8 mphMostly Cloudy
1:00 PM41.0 °F28.4 °F61 %29.57 in25.0 miWSW (250°)15.0 mph24.2 mphOvercast
2:00 PM41.0 °F29.0 °F50 %29.55 inWSW (250°)15.0 mph
2:00 PM41.0 °F26.6 °F57 %29.56 in30.0 miWSW (250°)23.0 mph31.1 mphOvercast
3:00 PM41.0 °F30.2 °F65 %29.57 in25.0 miWSW (250°)17.3 mph24.2 mphOvercast
4:00 PM39.2 °F30.2 °F70 %29.59 in20.0 miWSW (240°)23.0 mphRainLight Rain Showers
5:00 PM40.0 °F33.0 °F66 %29.60 inWSW (250°)17.3 mph
5:00 PM39.2 °F32.0 °F75 %29.61 in20.0 miWSW (250°)16.1 mph25.3 mphRainLight Rain Showers
6:00 PM39.2 °F32.0 °F75 %29.62 in15.0 miWSW (240°)16.1 mphRainLight Rain Showers
7:00 PM39.2 °F32.0 °F75 %29.64 in15.0 miWSW (250°)19.6 mphRainLight Rain Showers
8:00 PM39.0 °F34.0 °F76 %29.65 inWSW (240°)11.5 mph
8:00 PM39.2 °F33.8 °F81 %29.66 in15.0 miWSW (240°)17.3 mph23.0 mphMostly Cloudy
9:00 PM39.2 °F33.8 °F81 %29.67 in15.0 miWSW (240°)16.1 mphRainLight Rain Showers
10:00 PM39.2 °F33.8 °F81 %29.68 in15.0 miWSW (250°)15.0 mphPartly Cloudy
11:00 PM39.0 °F34.0 °F76 %29.70 inWest (260°)11.5 mph
11:00 PM39.2 °F33.8 °F81 %29.70 in15.0 miWSW (250°)15.0 mphMostly Cloudy
Hourly data recorded from CYQB, located miles away from Quebec City, Quebec







STORIES FROM OUR PARTNERS